Regional Weather Roundup
Issued by NWS Goodland, KS

Home | Current Version | Previous Version | Text Only | Print | Product List | Glossary Off
Versions: 1 2 3 4 5 6 7 8 9 10 11 12 13 14 15 16 17 18 19 20 21 22 23 24 25 26 27 28 29 30 31 32 33 34 35 36 37 38 39 40 41 42 43 44 45 46 47 48 49 50

000
ASUS43 KGLD 251359
RWRGLD

GOODLAND FORECAST AREA HOURLY WEATHER ROUNDUP
NATIONAL WEATHER SERVICE GOODLAND KS
800 AM MDT WED MAY 25 2016

...OFFICIAL OBSERVATIONS...

CITY           SKY/WX    TMP DP  RH WIND       PRES   REMARKS
GOODLAND KS    CLOUDY    59  55  87 E15       29.92R
HILL CITY KS   CLOUDY    62  56  80 NE13      29.89R
IMPERIAL NEB   SUNNY     61  52  72 SE9       29.93R
MCCOOK NEB     SUNNY     66  55  67 E13       29.88R
AKRON CO       CLOUDY    54  52  93 SE8       30.00R
BURLINGTON CO  CLOUDY    56  53  90 NE10      29.95R
LIMON CO       CLOUDY    55  52  89 N10       30.01R
$$

...UNOFFICIAL OBSERVATIONS...

CITY           SKY/WX    TMP DP  RH WIND       PRES   REMARKS
COLBY KS       CLOUDY    61  59  94 E17G24    29.91S
GOVE KS          N/A     60  32  34 MISG        N/A
LENORA KS        N/A     61  32  33 MISG        N/A
NORTON KS      CLOUDY    63  52  67 E12       29.87F
SHARON SPRINGS   N/A     58  57  96 NE12        N/A
KIT CARSON CO    N/A     58  55  89 MISG        N/A
YUMA CO          N/A     57  54  89 CALM        N/A
$$



USA.gov is the U.S. government's official web portal to all federal, state and local government web resources and services.